Manitowoc, WI

5:39 AM CDT on April 23, 2017 (GMT -0500)
Manitowoc County

Weather History for KMTW - March, 2013

Change the Weather History Date:

Thursday, March 21, 2013

  Actual Average Record
Temperature  
Mean Temperature 19 °F -  
Max Temperature 26 °F 39 °F 73 °F (2012)
Min Temperature 12 °F 26 °F 0 °F (1965)
Degree Days  
Heating Degree Days 46    
Moisture  
Dew Point 8 °F    
Average Humidity 61    
Maximum Humidity 73    
Minimum Humidity 51    
Precipitation  
Precipitation 0.00 in - - ()
Sea Level Pressure  
Sea Level Pressure 29.97 in    
Wind  
Wind Speed 11 mph (WNW)    
Max Wind Speed 17 mph    
Max Gust Speed 21 mph    
Visibility 10 miles    
Events      
Averages and records for this station are not official NWS values.
T = Trace of Precipitation, MM = Missing Value Source: NWS Daily Summary

Daily Weather History Graph

Daily Weather History Graph

Search for Another Location

Airport or City:

Trip Planner

Search our weather history database for the weather conditions in past years. The results will help you decide how hot, cold, wet, or windy it might be!

Date:

Astronomy

Mar. 21, 2013 Rise Set
Actual Time 6:51 AM CDT 7:04 PM CDT
Civil Twilight 6:22 AM CDT 7:33 PM CDT
Nautical Twilight 5:48 AM CDT 8:07 PM CDT
Astronomical Twilight 5:14 AM CDT 8:42 PM CDT
Moon 1:24 PM CDT (3/21) 3:23 AM CDT (3/21)
Length of Visible Light 13h 10m
Length of Day
12h 13m
Waxing Gibbous, 69% of the Moon is Illuminated
Mar 21
Waxing Gibbous
Mar 27
Full
Apr 2
Last Quarter
Apr 10
New
Apr 18
First Quarter

Hourly Weather History & Observations

Time (CDT) Temp. Windchill Dew Point Humidity Pressure Visibility Wind Dir Wind Speed Gust Speed Precip Events Conditions
12:15 AM 12.2 °F -1.0 °F 1.4 °F 62% 29.98 in 10.0 mi West 10.4 mph - N/A   Partly Cloudy
12:35 AM 12.2 °F -2.5 °F 1.4 °F 62% 29.97 in 10.0 mi West 12.7 mph - N/A   Clear
1:15 AM 12.2 °F -1.0 °F 3.2 °F 67% 29.97 in 10.0 mi West 10.4 mph - N/A   Clear
1:35 AM 12.2 °F -1.0 °F 3.2 °F 67% 29.97 in 10.0 mi West 10.4 mph - N/A   Clear
1:55 AM 14.0 °F 0.5 °F 3.2 °F 62% 29.97 in 10.0 mi West 11.5 mph - N/A   Clear
2:15 AM 14.0 °F -1.4 °F 3.2 °F 62% 29.96 in 10.0 mi West 15.0 mph - N/A   Partly Cloudy
2:35 AM 14.0 °F -2.0 °F 3.2 °F 62% 29.96 in 10.0 mi West 16.1 mph 20.7 mph N/A   Partly Cloudy
2:55 AM 14.0 °F -0.8 °F 3.2 °F 62% 29.96 in 10.0 mi West 13.8 mph 20.7 mph N/A   Clear
3:15 AM 14.0 °F -2.0 °F 3.2 °F 62% 29.96 in 10.0 mi West 16.1 mph - N/A   Clear
3:35 AM 14.0 °F -1.4 °F 3.2 °F 62% 29.95 in 10.0 mi West 15.0 mph - N/A   Clear
3:55 AM 14.0 °F -0.2 °F 3.2 °F 62% 29.95 in 10.0 mi West 12.7 mph 19.6 mph N/A   Mostly Cloudy
4:15 AM 14.0 °F -0.2 °F 3.2 °F 62% 29.95 in 10.0 mi West 12.7 mph 18.4 mph N/A   Mostly Cloudy
4:35 AM 14.0 °F -1.4 °F 3.2 °F 62% 29.95 in 10.0 mi WNW 15.0 mph 18.4 mph N/A   Clear
4:55 AM 14.0 °F -0.8 °F 3.2 °F 62% 29.95 in 10.0 mi WNW 13.8 mph 20.7 mph N/A   Clear
5:15 AM 14.0 °F -0.2 °F 5.0 °F 67% 29.95 in 10.0 mi WNW 12.7 mph 19.6 mph N/A   Clear
5:35 AM 14.0 °F -0.2 °F 3.2 °F 62% 29.95 in 10.0 mi WNW 12.7 mph 17.3 mph N/A   Clear
5:55 AM 14.0 °F 0.5 °F 5.0 °F 67% 29.96 in 10.0 mi WNW 11.5 mph - N/A   Clear
6:15 AM 12.2 °F -1.0 °F 5.0 °F 73% 29.95 in 10.0 mi WNW 10.4 mph - N/A   Clear
6:35 AM 12.2 °F -1.8 °F 5.0 °F 73% 29.95 in 10.0 mi WNW 11.5 mph - N/A   Clear
6:55 AM 12.2 °F -2.5 °F 3.2 °F 67% 29.95 in 10.0 mi West 12.7 mph - N/A   Clear
7:15 AM 12.2 °F -0.2 °F 5.0 °F 73% 29.96 in 10.0 mi West 9.2 mph - N/A   Clear
7:35 AM 12.2 °F 0.7 °F 5.0 °F 73% 29.96 in 10.0 mi West 8.1 mph - N/A   Clear
7:55 AM 14.0 °F 2.9 °F 5.0 °F 67% 29.96 in 10.0 mi West 8.1 mph - N/A   Clear
8:15 AM 15.8 °F 5.1 °F 6.8 °F 68% 29.96 in 10.0 mi West 8.1 mph - N/A   Clear
8:35 AM 15.8 °F 4.2 °F 6.8 °F 68% 29.96 in 10.0 mi West 9.2 mph - N/A   Clear
8:55 AM 15.8 °F 4.2 °F 6.8 °F 68% 29.97 in 10.0 mi WNW 9.2 mph - N/A   Clear
9:15 AM 17.6 °F 5.7 °F 8.6 °F 68% 29.97 in 10.0 mi WNW 10.4 mph - N/A   Clear
9:35 AM 17.6 °F 6.4 °F 8.6 °F 68% 29.98 in 10.0 mi WNW 9.2 mph - N/A   Clear
9:55 AM 19.4 °F 7.2 °F 8.6 °F 63% 29.98 in 10.0 mi WNW 11.5 mph - N/A   Scattered Clouds
10:15 AM 19.4 °F 6.0 °F 10.4 °F 68% 29.98 in 10.0 mi WNW 13.8 mph - N/A   Mostly Cloudy
10:35 AM 19.4 °F 5.5 °F 10.4 °F 68% 29.98 in 10.0 mi WNW 15.0 mph - N/A   Overcast
10:55 AM 21.2 °F 6.8 °F 10.4 °F 63% 29.99 in 10.0 mi NW 17.3 mph - N/A   Overcast
11:35 AM 21.2 °F 7.3 °F 12.2 °F 68% 30.00 in 10.0 mi WNW 16.1 mph 19.6 mph N/A   Mostly Cloudy
11:55 AM 23.0 °F 10.6 °F 12.2 °F 63% 29.99 in 10.0 mi NW 13.8 mph 17.3 mph N/A   Partly Cloudy
12:15 PM 23.0 °F 10.6 °F 12.2 °F 63% 29.99 in 10.0 mi NW 13.8 mph - N/A   Clear
12:35 PM 24.8 °F 13.4 °F 12.2 °F 59% 29.99 in 10.0 mi NW 12.7 mph - N/A   Clear
12:55 PM 24.8 °F 14.0 °F 12.2 °F 59% 29.99 in 10.0 mi NW 11.5 mph - N/A   Clear
1:15 PM 24.8 °F 14.6 °F 12.2 °F 59% 29.99 in 10.0 mi NW 10.4 mph - N/A   Scattered Clouds
1:35 PM 24.8 °F 12.9 °F 12.2 °F 59% 29.99 in 10.0 mi NW 13.8 mph - N/A   Mostly Cloudy
1:55 PM 26.6 °F 15.2 °F 14.0 °F 59% 29.98 in 10.0 mi West 13.8 mph - N/A   Mostly Cloudy
2:15 PM 26.6 °F 15.2 °F 12.2 °F 55% 29.98 in 10.0 mi WNW 13.8 mph - N/A   Mostly Cloudy
2:35 PM 26.6 °F 16.2 °F 12.2 °F 55% 29.97 in 10.0 mi WNW 11.5 mph - N/A   Scattered Clouds
2:55 PM 26.6 °F 16.2 °F 14.0 °F 59% 29.97 in 10.0 mi NW 11.5 mph 17.3 mph N/A   Partly Cloudy
3:15 PM 26.6 °F 15.7 °F 12.2 °F 55% 29.97 in 10.0 mi WNW 12.7 mph 18.4 mph N/A   Partly Cloudy
3:35 PM 26.6 °F 16.2 °F 14.0 °F 59% 29.97 in 10.0 mi West 11.5 mph - N/A   Partly Cloudy
3:55 PM 26.6 °F 14.7 °F 12.2 °F 55% 29.98 in 10.0 mi NW 15.0 mph 18.4 mph N/A   Partly Cloudy
4:15 PM 26.6 °F 17.5 °F 12.2 °F 55% 29.98 in 10.0 mi NW 9.2 mph - N/A   Clear
4:35 PM 26.6 °F 16.8 °F 12.2 °F 55% 29.98 in 10.0 mi WNW 10.4 mph - N/A   Clear
4:55 PM 26.6 °F 16.8 °F 12.2 °F 55% 29.98 in 10.0 mi WNW 10.4 mph - N/A   Clear
5:15 PM 26.6 °F 18.2 °F 12.2 °F 55% 29.98 in 10.0 mi WNW 8.1 mph - N/A   Clear
5:35 PM 26.6 °F 18.2 °F 12.2 °F 55% 29.98 in 10.0 mi West 8.1 mph - N/A   Clear
5:55 PM 26.6 °F 21.2 °F 12.2 °F 55% 29.98 in 10.0 mi West 4.6 mph - N/A   Clear
6:15 PM 26.6 °F 18.2 °F 12.2 °F 55% 29.98 in 10.0 mi West 8.1 mph - N/A   Clear
6:35 PM 26.6 °F 20.0 °F 10.4 °F 51% 29.97 in 10.0 mi West 5.8 mph - N/A   Clear
6:55 PM 26.6 °F 20.0 °F 10.4 °F 51% 29.97 in 10.0 mi West 5.8 mph - N/A   Clear
7:15 PM 26.6 °F 20.0 °F 10.4 °F 51% 29.97 in 10.0 mi WSW 5.8 mph - N/A   Clear
7:35 PM 24.8 °F 19.1 °F 10.4 °F 54% 29.98 in 10.0 mi WSW 4.6 mph - N/A   Clear
7:55 PM 24.8 °F 19.1 °F 10.4 °F 54% 29.98 in 10.0 mi WSW 4.6 mph - N/A   Clear
8:15 PM 24.8 °F 17.9 °F 10.4 °F 54% 29.98 in 10.0 mi WSW 5.8 mph - N/A   Clear
8:35 PM 24.8 °F 17.9 °F 10.4 °F 54% 29.98 in 10.0 mi WSW 5.8 mph - N/A   Clear
8:55 PM 23.0 °F 15.8 °F 10.4 °F 59% 29.98 in 10.0 mi West 5.8 mph - N/A   Clear
9:15 PM 23.0 °F 15.8 °F 10.4 °F 59% 29.98 in 10.0 mi West 5.8 mph - N/A   Clear
9:35 PM 23.0 °F 17.0 °F 8.6 °F 54% 29.98 in 10.0 mi West 4.6 mph - N/A   Clear
9:55 PM 23.0 °F 17.0 °F 8.6 °F 54% 29.98 in 10.0 mi West 4.6 mph - N/A   Clear
10:15 PM 21.2 °F 12.6 °F 8.6 °F 58% 29.98 in 10.0 mi West 6.9 mph - N/A   Clear
10:35 PM 21.2 °F 11.7 °F 8.6 °F 58% 29.98 in 10.0 mi WSW 8.1 mph - N/A   Clear
10:55 PM 21.2 °F 12.6 °F 8.6 °F 58% 29.98 in 10.0 mi West 6.9 mph - N/A   Clear
11:15 PM 21.2 °F 13.6 °F 8.6 °F 58% 29.99 in 10.0 mi West 5.8 mph - N/A   Clear
11:35 PM 21.2 °F 14.9 °F 8.6 °F 58% 29.99 in 10.0 mi West 4.6 mph - N/A   Clear
11:55 PM 19.4 °F 10.4 °F 8.6 °F 63% 29.99 in 10.0 mi WNW 6.9 mph - N/A   Clear